GFSNE_925_spd_144.txt.gz
Wind_Speed
36 32 31 28 25 25 24 24 10 4 4 15 14 29 29 33 34 34 33 34 39 37 37 37 38 39 39 39 39 37 35 32 30 31 30 32 32 29
30 36 30 29 27 27 29 27 26 13 3 17 23 17 25 26 26 30 31 30 35 37 39 40 40 40 39 41 42 40 38 37 33 32 31 32 32 32
31 30 32 31 29 27 27 27 23 21 8 9 8 19 22 23 21 23 27 29 31 33 35 38 42 43 43 42 42 43 41 40 38 35 35 32 33 33
31 32 32 31 33 30 30 30 29 29 18 9 13 15 24 25 24 23 24 25 29 30 31 31 35 42 47 44 45 46 46 43 41 39 39 36 34 34
35 31 34 32 30 29 29 29 30 25 22 18 15 13 18 17 23 23 25 25 26 29 31 32 34 34 38 46 47 49 50 49 46 45 41 39 38 36
34 34 31 31 33 31 28 27 28 25 25 22 18 14 14 13 17 18 21 25 28 30 31 33 36 37 38 40 45 48 54 54 49 46 44 40 40 39
32 32 32 31 28 29 27 25 23 23 21 19 15 11 11 10 14 18 23 24 26 27 28 29 32 35 37 39 40 41 48 54 53 48 44 37 34 37
26 30 31 31 29 27 28 28 28 24 20 17 12 9 14 15 17 19 17 11 4 14 14 20 21 25 28 30 35 39 42 47 56 49 46 36 35 41
23 24 25 27 25 27 28 26 17 16 17 19 14 12 10 10 10 13 18 19 13 17 14 8 12 14 17 21 28 31 33 35 44 48 45 39 40 45
20 23 25 24 25 30 26 22 16 11 10 7 11 13 15 16 14 14 13 15 14 12 10 2 5 4 5 6 6 8 10 18 37 39 39 42 47 38
17 21 25 25 21 18 15 13 10 9 7 8 9 10 10 14 13 14 17 11 4 6 11 6 4 7 5 8 9 10 16 22 25 32 40 38 34 30
17 18 21 14 16 16 13 12 15 13 10 6 5 3 2 2 6 9 14 15 7 3 11 9 11 7 4 7 8 10 14 16 18 19 21 26 30 30
18 16 12 9 10 10 11 12 11 13 11 11 10 8 7 7 8 6 7 11 12 4 8 14 13 11 6 7 9 10 13 15 18 18 20 22 23 23
21 18 15 12 13 11 11 11 13 13 13 13 12 12 11 11 11 9 7 6 6 5 8 18 8 17 11 6 7 13 13 13 17 18 18 16 16 13
22 20 17 17 20 18 17 15 14 14 14 15 14 14 13 13 13 14 12 11 10 9 11 15 6 17 16 13 13 16 18 14 16 18 18 18 21 13
23 24 21 23 23 21 19 15 14 12 14 17 17 16 15 14 15 14 16 17 19 18 11 6 8 15 14 16 24 20 22 9 19 17 16 14 14 11
21 21 22 22 23 23 23 20 19 19 20 19 19 18 18 16 15 13 12 15 17 15 22 20 15 16 18 23 21 22 15 18 19 18 17 14 10 10
23 21 21 18 18 17 17 19 22 22 20 21 19 18 20 18 19 20 21 20 20 18 20 23 29 31 28 28 20 21 19 20 20 18 15 12 9 9
23 20 17 17 18 19 20 19 21 20 21 22 22 21 21 20 19 19 18 18 18 15 15 16 14 17 10 8 18 17 19 18 17 14 11 10 8 9
23 21 20 21 20 19 19 19 21 21 21 21 20 20 20 21 21 20 20 19 18 19 20 17 13 11 16 7 9 17 15 16 14 12 11 6 10 10
22 22 22 21 21 21 21 22 21 20 19 20 20 19 19 22 21 22 22 21 20 18 17 18 12 10 18 26 17 13 13 10 8 11 9 5 6 7
22 21 23 24 23 21 20 18 18 19 18 18 19 20 20 21 21 20 18 18 19 21 22 21 18 15 15 17 17 14 13 11 9 8 6 3 2 3
25 25 26 24 22 19 18 20 20 20 19 18 18 17 17 19 19 19 19 18 17 16 16 16 18 16 16 16 17 15 13 10 10 10 12 9 7 5

GFSNE_925_spd_150.txt.gz
Wind_Speed
39 38 36 37 34 34 33 28 10 6 9 17 14 37 40 38 37 33 32 29 30 34 34 33 33 33 34 35 36 37 38 37 37 38 37 36 36 34
39 34 36 34 35 33 35 38 31 14 5 22 30 18 38 39 37 36 33 31 29 29 30 29 30 31 33 35 37 38 40 40 40 41 41 42 41 38
20 34 38 37 35 35 36 34 36 29 6 16 29 33 26 36 37 36 33 32 30 29 27 27 28 27 28 33 35 39 41 42 44 45 45 46 44 42
29 21 37 39 37 37 35 36 34 35 22 6 25 28 27 32 36 37 35 32 31 29 29 27 25 24 24 27 30 33 36 41 45 45 47 49 47 46
35 30 37 42 39 37 36 34 35 31 31 19 12 22 29 26 31 30 34 34 31 29 24 22 21 20 21 23 26 30 33 34 35 39 44 48 50 49
43 41 38 46 45 41 36 37 34 31 30 22 18 15 22 23 27 25 25 29 29 26 23 22 20 20 21 22 25 27 28 30 33 35 36 38 43 50
35 39 47 46 45 44 37 34 33 31 25 24 16 12 13 13 23 21 22 30 29 29 26 22 19 18 16 17 19 22 24 26 29 32 35 38 42 44
40 39 56 54 50 46 45 40 42 33 27 25 23 18 22 26 29 27 22 12 4 26 23 17 12 10 8 8 12 16 20 23 26 28 33 36 39 39
39 38 42 42 44 45 41 43 43 44 43 38 29 26 22 34 34 28 30 23 15 20 23 12 10 7 2 5 10 13 16 18 18 19 22 26 29 31
27 28 30 33 34 34 36 34 31 34 37 33 33 31 32 34 33 31 31 27 17 22 17 6 10 5 2 1 6 10 14 16 19 20 19 16 11 16
13 9 14 26 35 35 32 28 18 17 18 28 27 25 21 22 24 25 20 16 4 5 15 9 8 9 4 4 5 8 9 11 14 16 14 12 8 3
12 9 11 20 23 26 26 32 27 21 24 19 23 25 21 20 20 18 21 20 9 3 15 11 13 10 5 6 7 4 5 8 10 14 14 14 21 31
21 25 22 8 21 25 20 26 32 24 22 19 16 16 11 12 12 12 15 17 14 5 16 17 13 12 6 7 6 6 6 8 10 12 13 16 17 23
26 24 25 19 20 23 26 19 30 29 26 25 20 17 15 13 13 12 11 11 10 6 21 16 10 13 10 6 5 7 7 8 10 14 16 15 15 16
23 21 23 27 28 26 27 30 26 25 25 24 21 20 16 17 17 17 15 14 14 17 20 11 6 16 11 12 10 11 8 8 9 12 13 14 16 15
25 26 29 29 27 25 22 21 17 16 19 23 23 22 18 17 17 17 19 18 21 17 11 9 11 14 13 14 12 15 14 6 13 15 19 17 14 11
22 27 27 23 26 26 27 24 21 18 19 21 22 20 18 17 16 15 15 11 12 12 18 16 14 14 16 17 17 17 15 18 16 15 17 18 15 12
25 22 21 21 22 22 23 21 24 23 18 19 19 19 17 16 16 15 16 19 18 16 19 22 26 27 23 23 17 19 19 19 16 15 16 18 16 13
27 23 22 22 21 23 24 21 21 22 18 18 18 18 17 16 17 17 18 19 17 17 17 17 15 15 5 4 12 12 20 19 17 16 15 14 15 13
26 23 22 22 23 23 24 23 21 20 19 18 17 18 18 18 17 17 17 18 17 16 15 11 12 12 16 6 10 20 13 18 18 18 17 16 15 14
26 27 28 27 27 25 24 23 20 19 18 18 16 16 17 20 20 21 21 20 19 15 12 12 11 11 22 27 16 16 18 14 14 15 17 17 10 9
29 29 29 28 26 24 22 21 20 20 18 16 15 15 16 18 20 19 19 20 20 20 19 18 18 20 19 18 19 17 19 18 16 13 9 4 4 6
29 27 27 26 24 23 22 21 20 19 17 16 16 16 16 18 17 18 21 23 24 21 20 19 17 20 20 22 23 22 22 19 17 16 16 14 14 15

GFSNE_925_spd_153.txt.gz
Wind_Speed
37 33 36 29 33 33 33 30 12 8 12 19 19 30 36 37 44 43 41 39 36 38 41 41 40 40 39 38 36 35 36 35 35 36 36 37 37 35
33 32 40 39 34 34 36 35 32 13 6 22 27 21 31 34 40 42 41 39 36 34 38 40 42 39 38 38 38 37 36 37 37 38 38 38 39 39
35 36 43 50 27 30 36 34 29 29 10 11 27 32 23 29 30 37 38 38 37 33 33 33 37 37 35 34 34 36 37 37 38 39 41 42 42 44
36 34 44 33 28 32 31 35 33 35 22 6 22 25 30 28 26 32 36 37 36 34 33 31 31 31 30 29 28 30 31 32 34 35 37 40 43 47
37 40 31 32 37 32 30 30 32 29 28 21 16 22 27 28 26 27 30 32 32 32 29 29 30 30 28 28 27 27 28 29 30 32 35 37 37 41
34 40 49 42 32 24 32 34 30 28 25 24 17 14 19 21 27 25 24 31 31 29 27 25 27 28 27 26 25 25 25 25 27 29 31 33 35 36
32 36 38 40 43 31 30 33 30 27 23 24 16 10 14 13 25 22 20 24 30 31 26 23 25 26 23 23 19 18 22 25 26 27 28 30 35 38
32 35 37 43 48 47 39 39 39 34 30 25 24 18 24 24 23 26 21 12 3 27 31 26 25 23 18 12 11 11 12 15 18 22 26 31 37 41
35 33 37 33 42 46 44 40 44 45 45 37 30 29 26 37 31 25 29 23 13 24 34 20 21 17 13 8 4 3 6 10 11 15 23 22 23 29
34 34 37 35 34 37 33 27 34 46 46 43 39 39 38 37 41 37 33 25 16 19 24 7 15 11 13 8 5 5 6 8 11 13 15 18 21 21
14 21 30 36 41 40 35 26 28 34 40 45 36 39 35 35 33 33 28 22 3 9 18 9 14 12 10 8 6 9 10 12 15 15 16 16 16 14
12 7 4 23 37 31 28 34 29 29 28 24 21 26 29 26 32 35 37 22 10 4 18 13 17 9 6 6 7 6 8 9 11 13 13 12 14 19
19 23 21 5 9 31 46 36 41 33 24 24 22 22 16 18 14 7 22 27 16 5 17 18 12 11 8 7 6 7 8 9 10 12 13 14 20 25
29 24 25 26 18 23 30 35 27 37 35 32 29 24 22 20 17 12 12 15 11 7 20 18 12 17 12 7 6 9 10 9 9 12 14 14 13 15
26 25 26 28 30 28 27 33 32 31 27 28 17 24 17 21 21 18 16 16 17 19 19 10 10 20 16 15 12 13 11 8 10 13 15 15 15 17
27 26 27 29 32 29 27 24 19 20 25 23 23 26 23 22 23 23 26 25 27 21 15 13 18 17 17 19 20 17 17 7 14 16 18 17 15 15
24 28 32 30 29 26 28 25 22 21 23 24 23 23 24 24 20 20 23 15 16 15 21 20 19 19 21 22 20 19 21 22 20 22 22 22 19 17
28 27 27 26 26 23 21 22 23 23 19 21 22 22 23 22 20 16 18 22 22 20 22 24 30 30 24 25 19 23 22 20 19 19 20 20 20 18
31 28 26 26 25 24 22 23 20 19 17 17 21 20 23 22 21 18 18 20 18 19 19 20 15 12 8 4 12 15 20 18 20 18 17 16 20 18
31 28 27 26 25 24 23 23 22 19 18 17 18 19 20 21 19 17 17 18 17 18 19 14 12 14 15 7 10 17 15 22 22 22 22 21 21 17
30 30 30 29 28 26 26 25 23 20 18 17 16 16 18 21 19 20 21 20 20 18 15 17 15 16 29 32 19 17 19 15 15 21 23 21 13 10
32 31 33 33 32 30 27 25 24 22 20 18 17 17 18 21 22 22 21 20 19 20 21 23 22 24 22 21 18 19 22 23 20 15 9 5 5 7
32 32 33 33 32 29 27 25 24 22 19 17 16 16 16 18 18 20 22 22 21 22 23 23 20 23 21 23 24 21 25 24 24 22 20 15 14 15

GFSNE_925_spd_156.txt.gz
Wind_Speed
42 41 41 38 22 18 31 28 13 7 10 17 17 33 38 36 40 41 40 39 38 36 36 39 40 40 40 38 38 36 36 35 34 35 35 35 36 36
38 37 33 35 37 39 12 27 27 18 7 22 26 23 34 33 38 41 43 41 39 37 35 35 38 41 40 40 39 38 37 37 36 35 36 37 37 37
37 36 37 34 37 43 28 29 26 24 10 7 26 32 27 28 30 38 39 40 39 38 36 34 34 39 41 40 38 38 38 38 38 37 38 39 39 41
31 27 32 34 36 39 39 28 30 29 25 10 20 25 27 30 27 31 34 35 37 37 36 34 32 33 36 38 38 36 35 35 38 39 40 42 40 41
29 29 35 36 31 31 39 36 29 28 30 18 11 18 17 29 26 27 30 31 31 32 31 30 30 29 29 31 34 34 34 34 32 34 34 34 36 37
27 30 32 34 35 38 38 43 39 31 26 25 15 15 17 22 24 21 20 26 27 26 27 26 26 27 30 31 32 32 32 30 30 29 30 31 32 33
36 29 32 37 39 39 42 38 33 30 26 25 19 10 12 12 25 20 20 22 21 25 23 22 24 26 27 31 32 31 30 27 26 26 27 30 30 31
30 32 33 35 41 44 45 41 43 40 34 27 26 17 21 26 25 25 21 12 4 25 28 22 23 24 23 22 25 25 23 23 23 22 21 23 26 31
29 33 27 33 40 38 41 46 45 46 42 36 30 28 28 33 34 26 28 23 15 21 31 17 21 20 17 13 8 12 14 12 9 10 12 15 22 25
23 29 35 28 35 39 35 38 43 40 37 38 35 34 35 35 40 40 36 23 11 23 28 6 19 12 13 11 11 8 9 9 6 3 2 4 8 12
24 17 17 27 36 39 40 36 35 32 36 37 35 37 36 37 37 31 27 22 3 9 25 14 17 17 13 14 15 12 10 15 14 11 11 10 8 13
26 23 21 16 26 40 44 35 25 29 32 27 31 38 35 32 33 39 38 23 10 3 21 17 24 15 8 10 15 14 12 15 15 15 16 11 12 19
27 27 28 30 19 37 43 37 36 38 36 31 31 31 28 32 34 36 33 32 21 4 23 24 19 20 8 11 9 13 13 15 16 17 17 14 18 23
27 31 28 28 22 25 45 42 41 40 36 34 29 21 29 28 23 22 22 24 23 13 29 18 18 25 13 7 8 15 16 17 17 19 19 16 16 18
33 33 32 33 26 25 21 25 36 37 35 26 22 20 21 27 31 29 26 22 23 21 29 23 16 33 23 18 17 18 17 14 17 19 19 18 19 20
34 33 36 36 28 26 30 26 18 15 19 23 24 27 33 20 30 33 33 31 30 22 18 16 20 26 19 23 26 20 22 9 20 20 21 20 19 18
32 33 38 38 37 36 34 29 27 25 21 23 18 25 24 23 24 26 32 20 17 17 24 24 22 23 26 28 25 23 23 25 24 23 23 22 20 20
36 32 32 33 31 29 28 26 29 30 24 24 24 19 20 19 20 23 26 25 24 22 24 26 35 34 28 26 21 27 24 23 24 23 21 24 20 20
37 32 30 31 30 31 30 27 25 27 25 24 24 19 20 20 20 19 22 24 21 21 21 19 16 17 10 5 11 20 25 22 26 22 20 18 19 18
36 33 33 32 31 31 30 29 26 25 24 25 24 21 21 20 19 18 19 21 21 20 20 17 18 15 16 9 10 18 23 28 24 23 24 26 25 21
33 33 34 34 34 33 32 31 29 28 28 26 24 22 21 21 22 20 22 22 22 19 16 16 14 17 28 32 19 18 18 21 23 30 26 19 14 9
33 32 34 35 36 36 34 33 31 31 29 27 26 23 21 21 20 20 20 20 19 20 22 23 23 23 22 26 21 21 22 23 21 22 16 7 9 8
33 33 34 35 37 37 38 34 33 33 32 28 24 21 20 21 20 21 21 20 21 20 20 21 23 25 23 26 25 20 25 25 24 24 20 9 9 16

GFSNE_925_spd_159.txt.gz
Wind_Speed
34 38 36 36 36 36 41 30 19 14 12 19 14 34 36 36 38 43 45 46 43 43 43 43 41 41 41 39 38 36 36 34 33 32 32 32 32 33
29 34 38 35 37 40 41 35 32 20 14 22 28 23 38 34 35 42 42 44 41 44 44 43 42 40 40 41 39 38 37 36 35 34 33 33 34 34
31 34 36 38 39 40 39 39 25 26 13 16 26 25 28 31 29 39 41 43 42 41 43 43 41 39 38 39 40 39 38 38 37 36 35 35 37 36
34 32 34 37 41 43 38 36 38 24 23 16 16 19 24 32 30 36 36 35 38 40 43 42 40 38 36 36 40 40 38 38 37 36 36 35 38 39
37 34 34 33 36 35 33 32 33 32 34 27 11 15 20 22 26 25 31 33 33 34 32 38 39 38 36 34 35 37 38 37 36 36 36 36 37 37
38 35 35 36 31 28 31 32 33 29 33 32 24 15 18 22 25 23 21 25 27 29 28 28 34 36 34 33 32 33 35 37 38 36 35 34 32 33
38 32 31 34 34 31 29 30 30 30 31 31 24 16 17 14 23 24 21 22 22 28 24 22 24 28 30 31 30 30 32 33 33 33 32 31 31 31
36 32 28 32 36 33 39 38 34 33 33 32 22 14 24 27 30 25 19 12 4 24 27 19 20 22 23 24 26 29 30 32 34 34 31 31 30 30
32 31 28 27 31 29 37 45 44 43 45 44 31 33 30 34 33 28 26 27 18 26 34 15 18 20 18 17 18 20 21 23 25 26 29 29 25 26
31 30 25 28 26 27 34 34 39 42 47 47 41 35 31 30 35 40 33 19 14 28 33 6 20 14 17 15 13 15 16 15 15 13 14 13 16 14
32 28 27 30 29 31 28 35 33 34 38 36 39 36 40 32 34 24 24 23 3 10 26 15 17 18 15 17 14 14 14 15 12 10 12 9 6 2
31 27 27 27 38 29 27 28 27 30 31 30 29 38 32 39 41 39 37 24 10 3 23 15 19 15 7 15 17 17 17 15 17 14 16 14 11 12
28 27 30 36 35 26 22 31 31 26 29 34 30 32 36 37 43 41 40 35 26 6 32 29 20 19 9 11 16 19 20 20 21 15 19 18 19 18
30 30 32 36 33 28 20 28 36 35 32 29 27 25 29 33 37 44 41 38 38 35 36 47 19 29 15 8 8 22 23 22 24 22 21 20 20 22
35 34 34 35 35 31 33 15 25 30 30 25 25 25 30 36 33 26 27 32 28 24 39 46 32 39 33 20 17 18 27 23 25 26 23 23 23 22
38 35 36 33 37 34 35 33 25 2 20 27 24 24 30 32 31 28 28 28 24 20 25 29 26 38 23 28 36 30 25 13 28 27 26 22 19 15
32 36 38 40 38 39 37 34 30 26 20 14 13 18 24 26 23 28 25 19 10 20 19 26 28 27 26 34 26 28 27 26 28 29 29 24 19 17
34 35 34 35 33 34 33 33 33 30 25 20 20 14 10 21 24 21 27 10 27 21 24 29 39 36 34 28 23 30 29 28 27 27 26 28 23 18
37 34 32 34 34 34 33 33 30 29 28 27 23 20 20 11 19 21 20 24 15 25 20 26 24 29 14 8 13 21 30 28 29 25 24 23 24 19
36 33 33 34 35 34 34 32 32 32 29 28 28 26 24 17 16 16 18 17 22 20 20 21 20 17 18 13 11 22 26 31 28 27 26 25 25 24
35 35 35 35 35 36 37 36 35 34 33 30 28 27 23 19 19 20 20 22 19 18 20 18 18 25 36 39 22 25 22 23 26 30 28 27 21 19
33 33 35 36 36 36 36 36 36 37 34 32 28 25 23 22 21 20 19 20 19 22 23 23 23 27 27 30 22 25 23 28 27 25 17 13 16 9
31 32 33 35 36 37 36 35 34 34 35 33 29 27 25 22 21 22 21 20 20 19 19 21 23 26 26 29 30 27 30 26 22 21 19 10 12 24

GFSNE_925_spd_162.txt.gz
Wind_Speed
27 27 30 29 29 31 31 32 19 14 15 25 21 35 37 38 40 42 48 42 51 53 53 52 50 47 44 44 42 41 40 38 38 36 36 34 33 32
22 26 29 29 32 32 33 33 34 25 16 30 29 30 40 38 39 41 42 45 41 51 51 52 53 50 48 46 44 43 42 42 39 37 36 34 34 34
26 27 31 31 33 33 34 34 36 34 17 34 35 30 34 36 34 41 41 44 42 44 51 49 51 52 51 48 47 45 43 42 41 39 38 36 35 35
31 30 33 33 35 32 34 38 36 38 34 21 39 35 39 38 37 38 38 38 39 40 48 50 50 50 50 48 48 47 46 45 43 41 39 37 36 35
34 33 35 35 35 34 32 34 37 39 38 35 27 34 37 28 33 32 34 32 35 35 39 43 44 50 50 47 46 46 47 46 45 43 40 39 37 37
37 34 34 33 36 35 33 36 35 37 36 37 29 25 20 32 30 27 25 28 28 35 35 38 39 44 48 47 45 43 43 43 43 43 42 40 39 37
36 34 31 32 39 41 37 37 38 34 34 32 26 27 27 15 18 22 21 22 22 30 30 29 31 36 41 43 44 42 39 38 40 42 40 38 38 37
36 35 33 34 32 36 36 37 41 39 34 28 21 17 24 31 25 22 21 13 4 23 31 24 26 28 33 36 38 39 38 35 35 37 37 38 38 36
34 35 34 31 32 34 33 36 31 43 49 27 26 28 31 30 28 28 24 26 17 19 31 13 20 22 23 25 30 34 35 35 35 34 35 35 35 35
34 33 33 33 31 32 35 34 36 35 36 42 36 32 35 38 43 36 33 27 17 21 27 4 17 11 17 18 18 24 29 30 30 30 29 29 27 23
34 31 31 33 34 39 37 33 32 37 35 40 40 39 32 36 36 31 23 21 2 10 25 13 12 14 13 15 14 16 18 22 24 23 21 16 12 10
32 31 30 33 43 43 35 28 27 33 32 27 39 41 44 36 37 40 35 22 8 2 22 13 16 13 6 13 16 17 19 19 20 20 19 16 14 11
31 33 33 39 42 36 31 30 29 37 35 31 28 28 31 38 38 46 38 37 22 5 28 29 17 17 7 10 16 22 22 23 23 22 21 20 16 17
33 35 37 40 37 33 31 34 37 30 31 28 25 25 26 28 37 40 28 37 35 32 34 47 18 28 14 8 7 24 26 27 27 27 25 21 22 21
35 36 37 38 37 32 35 36 33 13 22 18 21 21 24 27 35 34 31 26 31 35 29 53 38 40 30 19 17 22 27 25 30 31 29 26 24 22
38 35 35 34 33 34 36 39 35 30 17 8 15 17 24 25 28 31 25 24 11 19 30 38 37 43 23 20 33 34 27 18 34 32 34 32 26 21
34 34 37 39 38 40 40 38 37 36 32 25 10 13 17 20 19 28 22 26 10 10 15 19 23 24 18 25 20 33 33 31 32 34 34 28 28 21
31 32 34 36 35 37 37 37 37 37 34 28 22 15 5 10 13 18 19 20 17 19 19 30 33 30 23 18 22 30 29 35 34 31 29 30 27 22
32 33 33 35 37 38 37 36 36 37 34 29 25 21 14 12 9 9 8 14 16 21 23 26 29 26 10 3 8 20 26 37 37 30 27 26 30 26
34 33 33 35 36 37 39 38 38 38 36 33 30 26 21 13 13 13 9 9 14 19 21 18 17 18 13 9 7 18 29 32 34 31 32 34 31 30
33 33 34 36 37 38 38 39 39 39 37 34 33 30 25 18 16 16 21 19 14 15 10 14 18 27 34 38 19 26 23 24 31 34 35 36 28 24
32 32 33 34 36 38 39 39 39 39 39 36 31 28 26 22 18 18 17 18 19 20 21 26 26 30 32 32 19 27 32 33 32 31 24 20 18 9
31 32 33 34 35 36 37 38 37 36 36 36 34 31 29 25 23 20 19 19 20 21 20 22 29 29 28 29 31 27 32 30 29 28 22 12 16 29

GFSNE_925_spd_165.txt.gz
Wind_Speed
25 24 24 25 25 28 27 25 19 16 17 22 24 30 32 38 40 42 46 45 51 55 62 59 56 54 52 49 48 44 44 39 39 39 39 37 37 37
23 25 26 28 27 29 30 27 29 25 19 29 29 27 28 35 43 49 49 48 52 56 60 63 60 58 54 52 49 48 45 42 41 40 40 39 38 38
26 28 28 32 30 30 30 31 29 30 18 30 36 33 33 36 39 41 50 47 48 54 59 61 64 61 59 55 52 48 48 46 43 42 42 42 40 38
31 31 30 30 30 31 30 32 32 33 31 23 36 35 36 38 40 33 44 43 44 50 56 61 63 65 62 59 55 51 50 48 45 43 44 43 42 40
32 33 34 33 33 30 29 30 33 34 35 35 34 37 35 35 34 29 35 38 37 38 49 57 62 64 64 61 57 55 52 50 47 44 43 43 42 41
35 35 34 32 32 30 28 31 34 33 33 32 35 33 33 35 34 29 26 32 29 33 37 51 55 58 61 61 59 58 56 53 49 46 44 44 44 42
34 34 33 32 35 36 35 28 31 31 29 30 27 30 29 27 25 24 26 30 26 36 34 40 48 52 55 54 55 56 55 55 51 47 46 45 44 45
33 35 34 34 31 32 34 32 32 33 32 28 27 15 29 33 31 27 25 18 9 29 33 32 37 38 44 50 53 54 53 52 49 46 45 45 45 45
33 34 36 33 33 32 31 33 36 37 39 37 35 34 34 35 30 30 32 26 21 20 33 16 25 29 33 37 42 48 50 49 47 44 43 42 42 41
32 34 33 33 33 33 41 41 38 36 36 33 34 39 41 44 38 42 40 23 19 24 27 3 16 10 18 23 27 34 40 45 46 44 42 39 38 38
34 31 31 33 34 41 40 39 39 37 35 36 39 45 51 47 49 40 32 19 3 10 25 13 10 13 11 14 16 19 26 32 37 39 39 38 37 35
33 30 31 34 43 42 38 37 34 35 37 40 41 42 36 46 46 40 26 13 6 2 22 11 13 13 4 11 15 18 20 21 25 28 30 29 27 24
32 33 34 40 43 40 36 33 37 47 43 37 37 40 38 36 36 40 31 36 26 6 30 23 13 13 7 9 13 20 24 25 25 23 23 23 24 23
33 36 38 42 41 39 36 41 42 40 33 31 31 33 32 34 34 37 33 30 39 38 38 47 17 23 12 6 5 22 26 29 29 30 28 25 23 22
36 37 39 41 40 39 42 42 40 37 35 31 28 29 34 35 30 29 31 32 23 37 41 50 38 39 28 16 13 20 28 23 32 33 31 30 31 29
39 35 35 36 35 37 39 40 38 37 35 30 30 29 34 29 27 30 21 21 11 7 31 39 46 44 24 19 23 28 23 18 35 33 33 30 31 31
34 32 34 37 38 40 41 41 40 40 39 37 32 27 14 15 17 24 18 18 7 9 8 19 26 27 22 25 15 29 31 23 37 36 34 27 26 28
30 30 32 34 34 37 39 41 41 41 42 38 33 28 24 16 5 12 13 13 8 14 15 18 29 27 19 13 16 26 20 24 30 34 32 31 25 29
31 31 31 34 36 37 39 40 39 42 42 39 33 32 28 20 14 7 4 2 5 16 21 33 29 13 10 3 6 28 31 30 32 28 21 21 22 26
32 32 33 35 36 37 39 40 42 43 42 40 36 32 31 25 21 16 9 4 6 6 11 15 22 25 13 11 6 15 34 43 40 29 30 29 27 32
33 33 34 35 37 38 40 41 41 42 42 40 37 35 33 28 21 19 16 16 10 9 6 4 6 12 31 30 17 19 20 29 38 45 40 41 24 25
31 33 33 35 37 39 41 41 42 43 43 42 40 38 35 28 23 18 19 11 11 14 16 16 22 25 18 23 15 26 29 38 40 40 28 28 29 7
32 31 33 35 36 38 40 42 42 42 42 43 42 39 36 30 27 23 20 19 14 9 15 17 18 23 26 28 30 28 34 36 36 35 29 25 20 37